Weather in Kapustyntsi

Ukraine / Sumi District     50°37′25″N   34°08′48″E
temp.,
°C
wind,
m/s
gust,
m/s
humid.,
%
clouds,
%
prec.,
mm/h
press.,
hPa
HPBL,
m
27 october, wed
wed2700:00+2ssw410595 0.0 1029180
03:00+1ssw410595 0.0 1028168
06:000ssw411625 0.0 1027205
09:00+3ssw512660 0.0 1026343
12:00+8sw796327 0.0 1025796
15:00+10wsw686173 0.0 10231146
18:00+6wsw347730 0.0 102344
21:00+7w357043 0.0 1023135
28 october, thu
thu2800:00+5wnw337811 0.0 102436
03:00+4w338579 0.0 102446
06:00+4wsw3691100 0.0 1023102
09:00+6sw51082100 0.1 1022289
12:00+10wsw61070100 0.0 1021586
15:00+11w51074100 0.0 1020671
18:00+10wnw4982100 0.1 1021400
21:00+8nw499292 0.1 1023302
29 october, fri
fri2900:00+8nw35940 0.0 1024102
03:00+6nnw36965 0.0 1025113
06:00+5n34925 0.0 102767
09:00+6nne25815 0.0 1028158
12:00+11ene34580 0.0 1029624
15:00+12ene33540 0.0 1029918
18:00+8ene22740 0.0 102915
21:00+6ese34830 0.0 103053
30 october, sat
sat3000:00+5se34900 0.0 103167
03:00+4se34910 0.0 103250
06:00+4se34930 0.0 103257
09:00+5sse35880 0.0 1033137
12:00+11sse45610 0.0 1033584
15:00+13sse34520 0.0 1031903
18:00+9se33660 0.0 103224
21:00+7se33700 0.0 103237
31 october, sun
sun3100:00+6sse33740 0.0 103238
03:00+5se33770 0.0 103228
05:00+4se33830 0.0 103232
08:00+5ese36800 0.0 1031164
11:00+11se46570 0.0 1030603
14:00+13se45460 0.0 1027841
17:00+8ese46620 0.0 102783
20:00+7ese49730 0.0 1027148